Regional Weather Roundup
Issued by NWS

Home | Current Version | Previous Version | Graphics & Text | Print | Product List | Glossary On
Versions: 1 2 3 4 5 6 7 8 9 10 11 12 13 14 15 16 17 18 19 20 21 22 23 24 25 26 27 28 29 30 31 32 33 34 35 36 37 38 39 40 41 42 43 44 45 46 47 48 49 50
000
ASUS45 KABQ 170001
RWRNM
NEW MEXICO REGIONAL WEATHER ROUNDUP
NATIONAL WEATHER SERVICE ALBUQUERQUE NM
500 PM MST SAT DEC 16 2017

NOTE: "FAIR" MEANS FEW OR NO CLOUDS BELOW 12,000 FEET AGL WITH NO
       SIGNIFICANT WEATHER OR OBSTRUCTIONS TO VISION.

      THIS PRODUCT IS RELEASED AS TWO VERSIONS.  ONE VERSION NEAR
      THE TOP OF THE HOUR CONTAINING PRELIMINARY DATA FROM ALBUQUERQUE
      AND OTHER STATIONS.  A FINAL VERSION WITH ADDITIONAL DATA IS
      ISSUED ABOUT 10 MINUTES AFTER THE HOUR.

NMZ501-503-504-510>518-170100-
NORTHWEST PLATEAU/NORTHCENTRAL MOUNTAINS

CITY           SKY/WX    TMP DP  RH WIND       PRES   REMARKS
FARMINGTON     FAIR      40  12  32 W9        29.76R WCI  34
6HR MIN TEMP:  35; 6HR MAX TEMP:  48;

LOS ALAMOS     FAIR      37  13  38 S5        29.77R WCI  33
SANTA FE       FAIR      38  11  32 CALM      29.75R
6HR MIN TEMP:  37; 6HR MAX TEMP:  44;

TAOS           FAIR      38   4  24 SW5       29.77R WCI  34
ANGEL FIRE     FAIR      36   2  24 SW6       29.75R WCI  31

$$
NMZ402-403-502-505>509-170100-
WESTCENTRAL MOUNTAINS/SOUTHWEST MOUNTAINS

CITY           SKY/WX    TMP DP  RH WIND       PRES   REMARKS
GALLUP         FAIR      44   1  16 SW9       29.80R
6HR MIN TEMP:  41; 6HR MAX TEMP:  53;

GRANTS         FAIR      48  -6  10 W9        29.79R
SILVER CITY    FAIR      47  16  29 W12       29.85R

$$
NMZ407-409-411-412-170100-
SOUTHERN DESERTS

CITY           SKY/WX    TMP DP  RH WIND       PRES   REMARKS
DEMING         FAIR      50  23  34 S6        29.83R
6HR MIN TEMP:  44; 6HR MAX TEMP:  54;

LAS CRUCES     FAIR      49  22  34 SW9       29.83S
HOLLOMAN AFB   FAIR      48  20  33 SE7       29.84R
ALAMOGORDO     FAIR      45  19  36 S8        29.82S
T OR C         FAIR      50  19  29 E5        29.77S
6HR MIN TEMP:  43; 6HR MAX TEMP:  53;


$$
NMZ519>523-170100-
CENTRAL VALLEYS/CENTRAL HIGHLANDS

CITY           SKY/WX    TMP DP  RH WIND       PRES   REMARKS
ALBUQUERQUE    FAIR      44  15  31 SW5       29.77R
6HR MIN TEMP:  37; 6HR MAX TEMP:  47;

DOUBLE EAGLE   PTCLDY    36  14  41 S8        29.77S WCI  29
MORIARTY ARPT  FAIR      42   5  21 W10       29.75R
6HR MIN TEMP:  39; 6HR MAX TEMP:  54;

CLINES CORNERS FAIR      38   1  21 W22       29.72R WCI  27
6HR MIN TEMP:  38; 6HR MAX TEMP:  49;

BELEN          FAIR      42  15  33 S5        29.76S
6HR MIN TEMP:  37; 6HR MAX TEMP:  49;

SOCORRO        FAIR      46  16  29 S12       29.77S
6HR MIN TEMP:  42; 6HR MAX TEMP:  51;


$$
NMZ524>526-539-540-170100-
SOUTHCENTRAL MOUNTAINS

CITY           SKY/WX    TMP DP  RH WIND       PRES   REMARKS
RUIDOSO        FAIR      37   1  22 W6        29.79R WCI  33

$$
NMZ527>531-170100-
NORTHEAST HIGHLANDS/NORTHEAST PLAINS

CITY           SKY/WX    TMP DP  RH WIND       PRES   REMARKS
LAS VEGAS      FAIR      41   7  24 E12       29.66R
6HR MIN TEMP:  41; 6HR MAX TEMP:  58;

RATON          FAIR      46   9  22 N18       29.69R
6HR MIN TEMP:  46; 6HR MAX TEMP:  66;

CLAYTON        FAIR      38  14  37 S7        29.69R WCI  33
6HR MIN TEMP:  37; 6HR MAX TEMP:  56;


$$
NMZ532>537-170100-
EASTCENTRAL PLAINS

CITY           SKY/WX    TMP DP  RH WIND       PRES   REMARKS
SANTA ROSA     FAIR      51  10  18 S12       29.65R
TUCUMCARI      FAIR      50   7  17 S12       29.65R
6HR MIN TEMP:  50; 6HR MAX TEMP:  61;

CANNON AFB     FAIR      47  17  30 S12       29.73S
6HR MIN TEMP:  47; 6HR MAX TEMP:  57;

CLOVIS AIRPORT FAIR      45  19  35 S12       29.74R

$$
NMZ028-029-538-170100-
SOUTHEAST PLAINS

CITY           SKY/WX    TMP DP  RH WIND       PRES   REMARKS
ROSWELL        FAIR      53  21  28 S16       29.68S
6HR MIN TEMP:  43; 6HR MAX TEMP:  62;

ARTESIA        FAIR      52  23  32 S15       29.73R
CARLSBAD       FAIR      50  26  39 W10       29.74R
6HR MIN TEMP:  47; 6HR MAX TEMP:  61;

HOBBS          CLEAR     46  34  61 S14       29.78R


$$




USA.gov is the U.S. government's official web portal to all federal, state and local government web resources and services.